SCP
0 0 0 0 0 0 0 0 0 0 0 0 0 0 0 0 0 0 0 0 0 -0 0 0 0 0 0 0 0 0 0 0 0 0 0 0 0 0 0 0 -0 0 0 0 -0
0 0 0 0 0 0 0 0 0 0 0 0 0 0 0 0 0 0 0 0 0 0 0 0 0 0 0 0 0 0 0 0 0 0 0 0 0 0 0 0 0 0 -0 -0 -0
0 0 0 0 0 0 0 0 0 0 0 0 0 0 0 0 0 0 -0 -0 0 0 0 0 0 0 0 0 0 0 0 0 0 0 0 0 -0 0 0 0 0 0 0 -0 -0
0 0 0 0 0 0 0 0 0 0 0 0 0 0 0 0 0 0 0 0 0 0 0 0 0 0 0 0 0 0 0 0 0 0 0 0 0 0 0 0 0 0 0 0 -0
0 0 0 0 0 0 0 0 0 0 0 0 0 0 0 0 0 0 0 0 0 0 0 0 0 0 0 0 0 0 0 0 0 0 0 0 0 0 0 0 0 -0 -0 -0 0
0 0 0 0 0 0 0 0 0 0 0 0 0 0 0 0 0 0 0 0 0 0 -0 0 0 0 0 0 0 0 0 0 0 0 0 0 0 0 0 0 0 0 0 0 0
0 0 0 0 0 0 0 0 0 0 0 0 0 0 0 -0 0 0 0 0 0 0 0 0 0 0 0 0 0 0 0 0 0 0 0 0 0 0 0 0 0 0 0 0 0
0 0 0 0 0 0 0 0 0 0 0 0 0 0 0 0 0 0 0 0 0 0 0 0 0 0 0 0 0 0 0 0 0 0 0 0 0 0 0 0 0 0 0 0 0
0 0 0 0 0 0 0 0 0 0 0 0 0 0 0 0 0 0 0 0 0 0 0 0 0 0 0 0 0 0 0 0 0 0 0 0 0 0 0 0 0 0 0 0 0
0 0 0 0 0 0 0 0 0 0 0 0 0 0 0 0 0 0 0 0 0 0 0 0 0 0 0 0 0 0 0 0 0 0 0 0 0 0 0 0 0 0 0 0 0
0 0 0 0 0 0 0 0 0 0 0 0 0 0 0 0 0 0 0 0 0 0 0 0 0 0 0 0 0 0 0 0 0 0 0 0 0 0 0 0 0 0 0 0 0
0 0 0 0 0 0 0 0 0 0 0 -0 0 0 0 0 0 0 0 0 0 0 0 0 0 0 0 0 0 0 0 0 0 0 0 0 0 0 0 0 0 0 0 0 0
0 0 0 0 0 0 0 0 0 0 0 0 0 0 0 0 0 0 0 0 0 0 0 0 0 0 0 0 0 0 0 0 0 0 0 0 0 0 0 0 0 0 0 0 0
-0 0 0 0 0 0 0 -0 0 0 0 0 0 0 0 0 0 0 0 0 0 0 0 0 0 0 0 0 0 0 0 0 0 0 0 0 0 0 0 0 0 0 0 0 0
-0 0 0 0 0 0 0 0 0 0 0 0 0 0 0 0 0 0 0 0 0 0 0 0 0 0 0 0 0 0 0 0 0 0 0 0 0 0 0 0 0 0 0 0 0
-0 0 0 0 0 0 0 0 0 0 0 0 0 0 0 0 0 0 0 0 0 0 0 0 0 0 0 0 0 0 0 0 0 0 0 0 0 0 0 0 0 0 0 0 0
-0 0 0 0 0 0 0 0 0 0 0 0 0 0 0 0 0 0 0 0 0 0 0 0 0 0 0 0 0 0 0 0 0 0 0 0 0 0 0 0 0 0 0 0 0
-0 -0 -0 0 0 0 0 0 0 0 0 0 0 0 0 0 0 0 0 0 0 0 0 0 0 0 0 0 0 0 0 0 0 0 0 0 0 0 0 0 0 0 0 0 0
0 -0 0 0 0 0 0 0 0 0 0 0 0 0 0 0 0 0 0 0 0 0 0 0 0 0 0 0 0 0 0 0 0 0 0 0 0 0 0 0 0 0 0 0 0
0 0 0 0 0 0 0 0 0 0 0 0 0 0 0 0 0 0 0 0 0 0 0 0 0 0 0 0 0 0 0 0 0 0 0 0 0 0 0 0 0 0 0 0 0
0 0 0 0 0 0 0 0 0 0 0 0 0 0 0 0 0 0 0 0 0 0 0 0 0 0 0 0 0 0 0 0 0 0 0 0 0 0 0 0 0 0 0 0 0
0 0 0 0 0 0 0 0 0 0 0 0 0 0 0 0 0 0 0 0 0 0 0 0 0 0 0 0 0 0 0 0 0 0 0 0 0 0 0 0 0 0 0 0 0
0 0 0 0 0 0 0 0 0 0 0 0 0 0 0 0 0 0 0 0 0 0 0 0 0 0 0 0 0 0 0 0 0 0 0 0 0 0 0 0 0 0 0 0 0
0 0 0 0 0 0 0 0 0 0 0 0 0 0 0 0 0 0 0 0 0 0 0 0 0 0 0 0 0 0 0 0 0 0 0 0 0 0 0 0 0 0 0 0 0
0 0 0 0 0 0 0 0 0 0 0 0 0 0 0 0 0 0 0 0 0 0 0 0 0 0 0 0 0 0 0 0 0 0 0 0 0 0 0 0 0 0 0 0 0
0 0 0 0 0 0 0 0 0 0 0 0 0 0 0 0 0 0 0 0 0 0 0 0 0 0 0 0 0 0 0 0 0 0 0 0 0 0 0 0 0 0 0 0 0
0 0 0 0 0 0 0 0 0 0 0 0 0 0 0 0 0 0 0 0 0 0 0 0 0 0 0 0 0 0 0 0 0 0 0 0 0 0 0 0 0 0 0 0 0
Wind_Speed_500mb
19 21 21 19 19 21 18 19 21 23 22 23 25 24 24 25 27 33 42 24 30 19 27 33 33 23 18 20 16 5 5 4 9 11 9 24 40 67 48 69 88 52 53 29 35
23 20 23 22 21 22 20 18 20 22 24 23 24 22 21 21 24 41 30 33 27 25 37 49 42 30 24 21 8 6 6 6 6 11 18 44 36 25 26 47 46 54 49 41 36
23 25 22 24 23 22 20 15 19 22 24 24 23 20 19 17 12 25 25 41 39 31 32 39 39 31 19 16 11 9 9 4 11 41 54 35 70 14 24 29 38 33 31 33 37
27 24 25 23 24 24 22 16 15 22 23 25 23 22 22 22 11 2 8 32 35 37 39 37 36 33 12 11 28 6 16 1 11 24 21 15 26 62 56 32 29 30 25 23 29
30 28 24 23 23 23 23 16 12 20 23 24 25 27 28 14 15 7 7 18 40 46 55 47 36 35 10 22 24 11 6 20 56 68 68 75 58 51 55 33 25 24 26 31 27
30 30 25 23 22 20 20 16 11 18 25 27 29 34 27 8 8 20 15 22 44 53 59 53 28 39 16 12 17 24 28 31 54 49 25 48 24 19 36 29 40 37 41 38 35
30 30 28 21 21 19 16 14 10 15 25 28 33 34 21 25 8 16 18 27 45 52 58 50 19 37 15 6 25 15 11 5 43 28 24 54 32 26 41 42 45 45 46 44 45
31 28 25 26 19 15 13 10 9 12 21 27 31 32 14 17 20 9 19 29 33 49 38 40 33 21 5 9 7 11 10 9 11 34 25 19 17 29 40 50 45 40 40 41 44
32 27 23 20 16 13 7 5 6 13 20 27 31 16 12 11 33 20 22 30 46 32 26 31 24 7 9 6 7 1 9 9 9 20 16 12 25 29 40 50 42 39 41 41 42
33 28 21 16 11 9 5 13 22 21 30 28 8 13 19 17 33 36 33 38 35 34 26 21 10 6 5 7 14 13 7 9 13 9 27 42 33 31 42 49 38 37 37 41 45
38 28 21 14 11 12 30 31 19 9 30 22 22 8 20 26 36 38 36 39 28 29 10 12 8 16 19 16 12 6 8 14 11 30 24 37 32 25 36 40 35 35 36 40 42
36 28 20 15 16 26 37 20 10 5 12 48 11 25 16 30 17 42 39 27 21 12 10 7 14 15 17 15 15 13 3 11 29 25 31 32 29 22 29 31 34 33 37 37 38
35 24 18 15 20 31 46 26 14 8 4 7 40 21 25 25 15 44 48 15 11 12 14 14 11 27 16 13 15 10 15 14 23 24 29 36 13 18 22 37 36 37 38 40 41
35 21 15 14 13 22 39 35 11 7 4 9 16 14 28 20 6 43 53 12 12 24 15 9 12 17 10 12 12 8 14 13 32 10 10 23 8 10 22 22 29 33 39 38 37
29 16 11 22 16 21 9 24 25 4 3 12 13 23 31 15 29 24 48 20 13 11 14 15 13 13 9 12 14 13 2 15 25 12 11 15 9 10 24 15 17 27 35 34 33
15 4 9 18 19 18 13 27 28 5 13 11 12 12 15 11 5 14 19 10 6 6 6 6 1 7 11 6 10 12 10 13 9 7 5 16 16 14 14 21 20 30 34 31 30
15 10 9 16 13 16 21 35 6 7 4 11 11 13 14 10 9 9 14 10 11 10 8 5 4 1 4 10 10 7 13 4 2 2 10 13 16 8 17 22 33 33 33 28 28
11 14 7 11 12 22 37 4 7 8 3 1 12 23 12 15 4 12 14 11 3 5 8 12 5 12 6 6 13 12 13 10 14 9 8 12 9 11 22 39 42 37 32 27 27
5 10 12 2 13 29 18 6 6 2 8 8 13 17 8 7 11 10 15 10 4 5 11 11 5 2 8 5 5 10 15 8 5 5 7 10 9 10 23 28 35 31 27 23 21
0 3 7 1 20 29 1 12 7 5 8 6 4 14 9 19 9 11 16 5 5 4 5 4 8 3 1 6 3 4 4 5 2 8 9 3 10 10 29 28 26 26 27 18 13
2 3 5 14 22 10 6 3 7 5 7 10 9 5 4 11 16 10 3 6 11 4 5 2 7 4 5 11 1 4 5 1 4 6 8 9 5 7 26 27 24 29 23 14 9
1 3 5 25 6 2 3 4 3 3 7 5 7 6 5 8 6 7 8 6 15 7 6 2 8 8 3 1 6 5 4 3 7 6 2 5 5 8 25 34 38 31 20 8 5
5 3 4 15 4 2 6 5 5 3 2 4 2 5 7 7 7 5 8 8 15 8 6 0 3 7 3 2 4 9 6 4 5 5 4 8 7 13 31 34 31 25 11 3 2
7 5 5 6 1 6 7 5 5 3 2 4 6 4 4 8 12 8 6 6 9 6 12 2 7 5 11 5 7 9 9 6 6 7 4 4 18 10 10 16 16 11 5 2 6
10 2 3 4 5 9 7 10 8 5 1 2 3 3 10 7 5 6 5 5 8 5 8 6 9 8 14 18 18 13 13 13 9 1 6 12 13 17 11 15 14 8 6 7 10
9 8 7 4 13 3 7 6 10 6 1 6 6 8 10 6 7 14 13 7 6 5 4 4 9 6 10 14 16 14 17 22 18 10 15 12 5 9 16 15 13 4 6 9 12
15 5 3 8 7 3 3 1 7 16 13 6 22 14 25 12 38 45 45 38 17 7 5 6 11 6 4 15 12 6 5 7 9 9 4 8 8 23 8 11 7 14 17 17 18
Wind_Direction_500mb
328 325 326 331 332 331 299 259 245 235 233 227 223 220 218 218 221 223 222 214 203 179 179 167 160 166 193 208 213 209 73 209 246 157 109 40 88 77 73 74 68 77 81 88 128
321 321 321 322 324 329 313 266 243 234 223 221 218 215 212 212 223 238 227 202 191 203 179 172 166 171 205 217 212 123 119 242 288 98 99 62 81 82 79 55 53 71 93 112 140
318 315 313 315 321 325 324 289 238 230 221 213 208 201 190 189 236 259 232 217 197 192 183 177 156 170 200 194 204 188 178 215 40 122 110 100 58 90 97 51 51 56 65 85 109
310 311 312 314 315 322 328 307 248 222 217 207 194 184 177 174 181 212 233 203 190 189 176 174 174 179 171 193 204 177 251 297 50 101 95 75 93 64 73 92 93 78 71 82 81
310 305 306 309 311 314 320 312 265 218 211 198 186 179 171 208 243 245 200 170 188 183 179 185 193 188 180 192 193 214 275 126 97 88 91 94 81 96 82 86 83 78 70 61 58
311 306 299 300 303 304 310 308 274 213 203 195 183 178 177 233 202 252 243 217 192 186 180 188 195 190 208 203 169 218 222 131 114 107 95 99 91 71 91 86 67 65 59 55 51
315 304 301 291 294 298 301 301 269 214 198 191 184 179 203 225 224 254 240 219 196 187 181 185 173 196 225 242 222 164 171 149 123 124 128 98 41 88 100 85 71 62 58 55 51
316 306 299 297 287 290 297 294 245 204 187 182 176 178 235 224 223 269 139 147 179 173 183 191 207 206 189 328 89 109 87 148 157 145 178 67 112 95 96 88 73 66 60 57 51
318 304 298 292 291 281 293 283 185 168 166 167 168 181 251 201 187 184 147 154 152 167 195 204 206 168 126 91 57 142 187 182 113 155 109 102 125 110 93 87 79 71 63 58 54
319 302 293 282 265 259 156 127 110 138 139 143 143 226 228 207 187 167 169 154 157 158 140 169 164 119 86 125 191 183 191 185 158 75 84 98 111 99 88 87 82 75 66 57 51
322 305 289 266 227 190 145 128 115 135 179 190 198 233 140 148 157 173 162 158 164 154 146 188 124 195 198 194 211 76 206 187 119 129 81 108 105 95 93 87 80 72 66 59 54
323 307 287 256 212 187 177 171 152 152 241 227 215 211 181 163 136 175 171 165 157 181 144 101 225 210 199 210 221 244 276 103 76 97 91 112 95 92 89 90 89 81 68 61 55
322 306 282 247 221 202 199 184 156 168 222 227 205 206 181 172 170 184 179 184 148 183 181 163 223 196 199 219 200 207 154 182 144 94 79 118 97 114 109 103 88 76 73 62 54
320 301 263 222 214 212 218 206 216 35 46 204 187 204 189 179 160 185 185 179 183 195 166 201 246 167 177 214 165 220 169 144 151 126 177 222 159 162 139 102 87 78 70 60 51
318 298 229 192 171 172 177 202 205 208 242 153 161 163 173 173 135 173 187 223 186 182 136 227 182 176 179 197 155 217 107 160 168 160 127 188 87 132 140 125 110 90 78 67 55
348 351 176 180 178 177 168 155 147 103 242 158 142 172 139 151 111 132 166 186 168 170 86 165 261 141 183 73 156 158 89 40 78 133 237 181 161 183 193 155 125 101 85 72 58
39 59 140 158 178 179 159 150 103 176 154 166 172 158 165 145 126 160 163 175 163 126 189 104 181 154 116 83 11 114 103 58 7 267 222 200 161 69 97 109 121 111 93 76 63
37 50 99 177 165 169 161 101 217 198 56 174 138 144 176 135 138 167 142 186 149 147 138 153 222 172 187 178 180 188 160 159 191 192 200 26 139 142 117 111 109 104 97 80 63
52 41 41 160 179 171 168 202 229 338 314 354 110 166 147 127 139 149 175 159 123 173 174 164 192 354 53 17 100 208 208 190 108 256 104 114 86 128 135 125 117 108 95 80 59
31 312 313 28 171 174 173 190 138 348 332 334 226 192 166 155 138 176 174 354 123 65 329 181 116 312 101 3 29 156 184 150 32 199 210 142 171 146 169 151 130 117 105 91 59
234 246 5 139 158 168 211 61 101 83 32 20 355 332 94 174 165 187 128 13 13 43 1 38 103 247 89 18 347 358 187 26 151 182 196 156 166 321 171 148 133 122 114 103 63
229 39 147 146 102 141 119 33 355 80 354 58 356 4 35 5 71 83 128 37 353 359 165 21 100 97 97 247 40 68 95 22 153 209 29 112 161 54 98 119 122 118 116 103 39
14 44 195 180 141 139 142 92 75 57 10 95 188 323 52 51 111 85 95 14 31 52 140 223 82 98 45 329 15 67 5 342 111 65 201 143 180 142 112 99 113 120 115 108 341
352 38 26 220 357 143 155 169 131 54 61 52 145 36 53 71 23 122 114 38 32 64 27 118 74 137 176 117 114 105 37 4 94 105 174 141 149 173 126 120 114 111 122 343 293
29 46 62 329 342 304 144 135 139 172 147 189 149 205 144 139 93 118 99 103 34 28 25 78 97 86 65 72 79 71 54 27 81 60 121 159 146 176 167 152 120 130 164 241 240
40 24 11 337 317 351 23 173 149 147 307 222 180 60 80 109 225 174 139 158 181 90 96 36 126 109 59 80 91 78 29 82 72 86 79 105 92 174 134 130 152 202 279 255 255
21 348 301 342 355 55 259 330 155 136 18 149 130 98 80 78 81 87 85 75 74 110 120 98 131 108 119 125 116 41 326 40 99 53 109 166 180 158 131 151 232 287 288 258 265
Wind_Speed_850mb
19 21 21 19 19 21 18 19 21 23 22 23 25 24 24 25 27 33 42 24 30 19 27 33 33 23 18 20 16 5 5 4 9 11 9 24 40 67 48 69 88 52 53 29 35
23 20 23 22 21 22 20 18 20 22 24 23 24 22 21 21 24 41 30 33 27 25 37 49 42 30 24 21 8 6 6 6 6 11 18 44 36 25 26 47 46 54 49 41 36
23 25 22 24 23 22 20 15 19 22 24 24 23 20 19 17 12 25 25 41 39 31 32 39 39 31 19 16 11 9 9 4 11 41 54 35 70 14 24 29 38 33 31 33 37
27 24 25 23 24 24 22 16 15 22 23 25 23 22 22 22 11 2 8 32 35 37 39 37 36 33 12 11 28 6 16 1 11 24 21 15 26 62 56 32 29 30 25 23 29
30 28 24 23 23 23 23 16 12 20 23 24 25 27 28 14 15 7 7 18 40 46 55 47 36 35 10 22 24 11 6 20 56 68 68 75 58 51 55 33 25 24 26 31 27
30 30 25 23 22 20 20 16 11 18 25 27 29 34 27 8 8 20 15 22 44 53 59 53 28 39 16 12 17 24 28 31 54 49 25 48 24 19 36 29 40 37 41 38 35
30 30 28 21 21 19 16 14 10 15 25 28 33 34 21 25 8 16 18 27 45 52 58 50 19 37 15 6 25 15 11 5 43 28 24 54 32 26 41 42 45 45 46 44 45
31 28 25 26 19 15 13 10 9 12 21 27 31 32 14 17 20 9 19 29 33 49 38 40 33 21 5 9 7 11 10 9 11 34 25 19 17 29 40 50 45 40 40 41 44
32 27 23 20 16 13 7 5 6 13 20 27 31 16 12 11 33 20 22 30 46 32 26 31 24 7 9 6 7 1 9 9 9 20 16 12 25 29 40 50 42 39 41 41 42
33 28 21 16 11 9 5 13 22 21 30 28 8 13 19 17 33 36 33 38 35 34 26 21 10 6 5 7 14 13 7 9 13 9 27 42 33 31 42 49 38 37 37 41 45
38 28 21 14 11 12 30 31 19 9 30 22 22 8 20 26 36 38 36 39 28 29 10 12 8 16 19 16 12 6 8 14 11 30 24 37 32 25 36 40 35 35 36 40 42
36 28 20 15 16 26 37 20 10 5 12 48 11 25 16 30 17 42 39 27 21 12 10 7 14 15 17 15 15 13 3 11 29 25 31 32 29 22 29 31 34 33 37 37 38
35 24 18 15 20 31 46 26 14 8 4 7 40 21 25 25 15 44 48 15 11 12 14 14 11 27 16 13 15 10 15 14 23 24 29 36 13 18 22 37 36 37 38 40 41
35 21 15 14 13 22 39 35 11 7 4 9 16 14 28 20 6 43 53 12 12 24 15 9 12 17 10 12 12 8 14 13 32 10 10 23 8 10 22 22 29 33 39 38 37
29 16 11 22 16 21 9 24 25 4 3 12 13 23 31 15 29 24 48 20 13 11 14 15 13 13 9 12 14 13 2 15 25 12 11 15 9 10 24 15 17 27 35 34 33
15 4 9 18 19 18 13 27 28 5 13 11 12 12 15 11 5 14 19 10 6 6 6 6 1 7 11 6 10 12 10 13 9 7 5 16 16 14 14 21 20 30 34 31 30
15 10 9 16 13 16 21 35 6 7 4 11 11 13 14 10 9 9 14 10 11 10 8 5 4 1 4 10 10 7 13 4 2 2 10 13 16 8 17 22 33 33 33 28 28
11 14 7 11 12 22 37 4 7 8 3 1 12 23 12 15 4 12 14 11 3 5 8 12 5 12 6 6 13 12 13 10 14 9 8 12 9 11 22 39 42 37 32 27 27
5 10 12 2 13 29 18 6 6 2 8 8 13 17 8 7 11 10 15 10 4 5 11 11 5 2 8 5 5 10 15 8 5 5 7 10 9 10 23 28 35 31 27 23 21
0 3 7 1 20 29 1 12 7 5 8 6 4 14 9 19 9 11 16 5 5 4 5 4 8 3 1 6 3 4 4 5 2 8 9 3 10 10 29 28 26 26 27 18 13
2 3 5 14 22 10 6 3 7 5 7 10 9 5 4 11 16 10 3 6 11 4 5 2 7 4 5 11 1 4 5 1 4 6 8 9 5 7 26 27 24 29 23 14 9
1 3 5 25 6 2 3 4 3 3 7 5 7 6 5 8 6 7 8 6 15 7 6 2 8 8 3 1 6 5 4 3 7 6 2 5 5 8 25 34 38 31 20 8 5
5 3 4 15 4 2 6 5 5 3 2 4 2 5 7 7 7 5 8 8 15 8 6 0 3 7 3 2 4 9 6 4 5 5 4 8 7 13 31 34 31 25 11 3 2
7 5 5 6 1 6 7 5 5 3 2 4 6 4 4 8 12 8 6 6 9 6 12 2 7 5 11 5 7 9 9 6 6 7 4 4 18 10 10 16 16 11 5 2 6
10 2 3 4 5 9 7 10 8 5 1 2 3 3 10 7 5 6 5 5 8 5 8 6 9 8 14 18 18 13 13 13 9 1 6 12 13 17 11 15 14 8 6 7 10
9 8 7 4 13 3 7 6 10 6 1 6 6 8 10 6 7 14 13 7 6 5 4 4 9 6 10 14 16 14 17 22 18 10 15 12 5 9 16 15 13 4 6 9 12
15 5 3 8 7 3 3 1 7 16 13 6 22 14 25 12 38 45 45 38 17 7 5 6 11 6 4 15 12 6 5 7 9 9 4 8 8 23 8 11 7 14 17 17 18
Wind_Direction_850mb
328 325 326 331 332 331 299 259 245 235 233 227 223 220 218 218 221 223 222 214 203 179 179 167 160 166 193 208 213 209 73 209 246 157 109 40 88 77 73 74 68 77 81 88 128
321 321 321 322 324 329 313 266 243 234 223 221 218 215 212 212 223 238 227 202 191 203 179 172 166 171 205 217 212 123 119 242 288 98 99 62 81 82 79 55 53 71 93 112 140
318 315 313 315 321 325 324 289 238 230 221 213 208 201 190 189 236 259 232 217 197 192 183 177 156 170 200 194 204 188 178 215 40 122 110 100 58 90 97 51 51 56 65 85 109
310 311 312 314 315 322 328 307 248 222 217 207 194 184 177 174 181 212 233 203 190 189 176 174 174 179 171 193 204 177 251 297 50 101 95 75 93 64 73 92 93 78 71 82 81
310 305 306 309 311 314 320 312 265 218 211 198 186 179 171 208 243 245 200 170 188 183 179 185 193 188 180 192 193 214 275 126 97 88 91 94 81 96 82 86 83 78 70 61 58
311 306 299 300 303 304 310 308 274 213 203 195 183 178 177 233 202 252 243 217 192 186 180 188 195 190 208 203 169 218 222 131 114 107 95 99 91 71 91 86 67 65 59 55 51
315 304 301 291 294 298 301 301 269 214 198 191 184 179 203 225 224 254 240 219 196 187 181 185 173 196 225 242 222 164 171 149 123 124 128 98 41 88 100 85 71 62 58 55 51
316 306 299 297 287 290 297 294 245 204 187 182 176 178 235 224 223 269 139 147 179 173 183 191 207 206 189 328 89 109 87 148 157 145 178 67 112 95 96 88 73 66 60 57 51
318 304 298 292 291 281 293 283 185 168 166 167 168 181 251 201 187 184 147 154 152 167 195 204 206 168 126 91 57 142 187 182 113 155 109 102 125 110 93 87 79 71 63 58 54
319 302 293 282 265 259 156 127 110 138 139 143 143 226 228 207 187 167 169 154 157 158 140 169 164 119 86 125 191 183 191 185 158 75 84 98 111 99 88 87 82 75 66 57 51
322 305 289 266 227 190 145 128 115 135 179 190 198 233 140 148 157 173 162 158 164 154 146 188 124 195 198 194 211 76 206 187 119 129 81 108 105 95 93 87 80 72 66 59 54
323 307 287 256 212 187 177 171 152 152 241 227 215 211 181 163 136 175 171 165 157 181 144 101 225 210 199 210 221 244 276 103 76 97 91 112 95 92 89 90 89 81 68 61 55
322 306 282 247 221 202 199 184 156 168 222 227 205 206 181 172 170 184 179 184 148 183 181 163 223 196 199 219 200 207 154 182 144 94 79 118 97 114 109 103 88 76 73 62 54
320 301 263 222 214 212 218 206 216 35 46 204 187 204 189 179 160 185 185 179 183 195 166 201 246 167 177 214 165 220 169 144 151 126 177 222 159 162 139 102 87 78 70 60 51
318 298 229 192 171 172 177 202 205 208 242 153 161 163 173 173 135 173 187 223 186 182 136 227 182 176 179 197 155 217 107 160 168 160 127 188 87 132 140 125 110 90 78 67 55
348 351 176 180 178 177 168 155 147 103 242 158 142 172 139 151 111 132 166 186 168 170 86 165 261 141 183 73 156 158 89 40 78 133 237 181 161 183 193 155 125 101 85 72 58
39 59 140 158 178 179 159 150 103 176 154 166 172 158 165 145 126 160 163 175 163 126 189 104 181 154 116 83 11 114 103 58 7 267 222 200 161 69 97 109 121 111 93 76 63
37 50 99 177 165 169 161 101 217 198 56 174 138 144 176 135 138 167 142 186 149 147 138 153 222 172 187 178 180 188 160 159 191 192 200 26 139 142 117 111 109 104 97 80 63
52 41 41 160 179 171 168 202 229 338 314 354 110 166 147 127 139 149 175 159 123 173 174 164 192 354 53 17 100 208 208 190 108 256 104 114 86 128 135 125 117 108 95 80 59
31 312 313 28 171 174 173 190 138 348 332 334 226 192 166 155 138 176 174 354 123 65 329 181 116 312 101 3 29 156 184 150 32 199 210 142 171 146 169 151 130 117 105 91 59
234 246 5 139 158 168 211 61 101 83 32 20 355 332 94 174 165 187 128 13 13 43 1 38 103 247 89 18 347 358 187 26 151 182 196 156 166 321 171 148 133 122 114 103 63
229 39 147 146 102 141 119 33 355 80 354 58 356 4 35 5 71 83 128 37 353 359 165 21 100 97 97 247 40 68 95 22 153 209 29 112 161 54 98 119 122 118 116 103 39
14 44 195 180 141 139 142 92 75 57 10 95 188 323 52 51 111 85 95 14 31 52 140 223 82 98 45 329 15 67 5 342 111 65 201 143 180 142 112 99 113 120 115 108 341
352 38 26 220 357 143 155 169 131 54 61 52 145 36 53 71 23 122 114 38 32 64 27 118 74 137 176 117 114 105 37 4 94 105 174 141 149 173 126 120 114 111 122 343 293
29 46 62 329 342 304 144 135 139 172 147 189 149 205 144 139 93 118 99 103 34 28 25 78 97 86 65 72 79 71 54 27 81 60 121 159 146 176 167 152 120 130 164 241 240
40 24 11 337 317 351 23 173 149 147 307 222 180 60 80 109 225 174 139 158 181 90 96 36 126 109 59 80 91 78 29 82 72 86 79 105 92 174 134 130 152 202 279 255 255
21 348 301 342 355 55 259 330 155 136 18 149 130 98 80 78 81 87 85 75 74 110 120 98 131 108 119 125 116 41 326 40 99 53 109 166 180 158 131 151 232 287 288 258 265